RYR835 EGCC-EBCI

Flight info

Callsign RYR835
Flight time 1h 1m
Altitude 29000
Route LISTO L612 HON/N0405F290 L15 BIG Q70 VABIK/N0362F230 Q70 KOK
Aircraft B738/M-SDE2E3FGHIRWXY/LB1

Departure

Time 2026-05-06 21:03
Airport Manchester Airport (EGCC)

Arrival

Time 2026-05-06 22:05
Airport Brussels South Charleroi Airport (EBCI)
Time Latitude Longitude Altitude Speed Heading
2026-05-06 20:03 53.36060 -2.26837 254 ft 0 kts 313°
2026-05-06 20:42 53.36056 -2.26829 254 ft 4 kts 314°
2026-05-06 20:43 53.36037 -2.26798 254 ft 2 kts 315°
2026-05-06 20:43 53.36024 -2.26772 254 ft 4 kts 275°
2026-05-06 20:43 53.36032 -2.26735 254 ft 4 kts 229°
2026-05-06 20:43 53.36048 -2.26703 254 ft 4 kts 231°
2026-05-06 20:44 53.36062 -2.26676 254 ft 4 kts 233°
2026-05-06 20:44 53.36075 -2.26638 254 ft 4 kts 243°
2026-05-06 20:44 53.36085 -2.26607 254 ft 4 kts 239°
2026-05-06 20:44 53.36100 -2.26569 254 ft 4 kts 233°
2026-05-06 20:45 53.36105 -2.26556 254 ft 0 kts 232°
2026-05-06 20:51 53.36104 -2.26560 254 ft 2 kts 232°
2026-05-06 20:51 53.36088 -2.26596 254 ft 6 kts 236°
2026-05-06 20:51 53.36062 -2.26670 254 ft 9 kts 237°
2026-05-06 20:52 53.36018 -2.26767 254 ft 12 kts 231°
2026-05-06 20:52 53.35951 -2.26843 254 ft 12 kts 172°
2026-05-06 20:52 53.35883 -2.26869 255 ft 10 kts 227°
2026-05-06 20:52 53.35845 -2.26956 255 ft 9 kts 238°
2026-05-06 20:53 53.35817 -2.27036 254 ft 8 kts 240°
2026-05-06 20:53 53.35805 -2.27070 254 ft 0 kts 237°
2026-05-06 20:53 53.35799 -2.27091 254 ft 5 kts 247°
2026-05-06 20:54 53.35811 -2.27176 254 ft 10 kts 301°
2026-05-06 20:54 53.35806 -2.27286 254 ft 11 kts 231°
2026-05-06 20:54 53.35751 -2.27398 254 ft 14 kts 231°
2026-05-06 20:54 53.35683 -2.27538 248 ft 19 kts 231°
2026-05-06 20:55 53.35606 -2.27680 242 ft 16 kts 224°
2026-05-06 20:55 53.35526 -2.27808 237 ft 16 kts 224°
2026-05-06 20:55 53.35447 -2.27935 237 ft 16 kts 224°
2026-05-06 20:55 53.35367 -2.28063 239 ft 16 kts 224°
2026-05-06 20:56 53.35289 -2.28190 233 ft 17 kts 225°
2026-05-06 20:56 53.35205 -2.28353 230 ft 20 kts 231°
2026-05-06 20:56 53.35105 -2.28562 227 ft 23 kts 231°
2026-05-06 20:56 53.35008 -2.28753 226 ft 20 kts 225°
2026-05-06 20:57 53.34914 -2.28917 224 ft 20 kts 226°
2026-05-06 20:57 53.34817 -2.29093 217 ft 20 kts 230°
2026-05-06 20:57 53.34737 -2.29257 213 ft 15 kts 229°
2026-05-06 20:57 53.34679 -2.29328 210 ft 0 kts 199°
2026-05-06 21:01 53.34666 -2.29334 210 ft 5 kts 194°
2026-05-06 21:01 53.34620 -2.29342 211 ft 8 kts 177°
2026-05-06 21:01 53.34562 -2.29310 221 ft 10 kts 150°
2026-05-06 21:02 53.34546 -2.29208 213 ft 11 kts 57°
2026-05-06 21:02 53.34593 -2.29111 214 ft 11 kts 51°
2026-05-06 21:02 53.34689 -2.28912 220 ft 48 kts 51°
2026-05-06 21:02 53.35045 -2.28175 232 ft 113 kts 51°
2026-05-06 21:03 53.35657 -2.26897 298 ft 161 kts 52°
2026-05-06 21:03 53.36368 -2.25381 856 ft 169 kts 52°
2026-05-06 21:03 53.37102 -2.23815 1551 ft 170 kts 53°
2026-05-06 21:03 53.37650 -2.22027 1835 ft 180 kts 79°
2026-05-06 21:04 53.37501 -2.19924 2072 ft 190 kts 121°
2026-05-06 21:04 53.36519 -2.18473 2395 ft 197 kts 153°
2026-05-06 21:04 53.35245 -2.17428 2703 ft 207 kts 149°
2026-05-06 21:04 53.33861 -2.16556 2845 ft 226 kts 178°
2026-05-06 21:05 53.32279 -2.16920 3242 ft 233 kts 187°
2026-05-06 21:05 53.30651 -2.17262 3867 ft 237 kts 185°
2026-05-06 21:05 53.28991 -2.17554 4472 ft 248 kts 185°
2026-05-06 21:05 53.27212 -2.17856 4895 ft 263 kts 185°
2026-05-06 21:06 53.25367 -2.18158 4981 ft 268 kts 185°
2026-05-06 21:06 53.23493 -2.18458 5336 ft 273 kts 185°
2026-05-06 21:06 53.21613 -2.18755 6155 ft 272 kts 185°
2026-05-06 21:06 53.19710 -2.19055 6877 ft 276 kts 186°
2026-05-06 21:07 53.17796 -2.19354 7631 ft 277 kts 186°
2026-05-06 21:07 53.15866 -2.19655 8359 ft 280 kts 186°
2026-05-06 21:07 53.13912 -2.19632 9028 ft 285 kts 166°
2026-05-06 21:07 53.12042 -2.18477 9714 ft 288 kts 158°
2026-05-06 21:08 53.10181 -2.17170 10333 ft 295 kts 158°
2026-05-06 21:08 53.08219 -2.15783 10511 ft 317 kts 158°
2026-05-06 21:08 53.06132 -2.14293 10725 ft 335 kts 158°
2026-05-06 21:08 53.03948 -2.12758 11254 ft 344 kts 158°
2026-05-06 21:09 53.01727 -2.11215 11966 ft 348 kts 158°
2026-05-06 21:09 52.99508 -2.09681 12655 ft 351 kts 158°
2026-05-06 21:09 52.97239 -2.08115 13319 ft 355 kts 159°
2026-05-06 21:09 52.94946 -2.06538 13973 ft 359 kts 159°
2026-05-06 21:10 52.92628 -2.04946 14660 ft 362 kts 159°
2026-05-06 21:10 52.91049 -2.03862 15109 ft 364 kts 159°
2026-05-06 21:10 52.88724 -2.02270 15773 ft 368 kts 159°
2026-05-06 21:10 52.86347 -2.00642 16436 ft 371 kts 159°
2026-05-06 21:11 52.83953 -1.99005 17094 ft 374 kts 159°
2026-05-06 21:11 52.81531 -1.97351 17704 ft 378 kts 159°
2026-05-06 21:11 52.79086 -1.95682 18306 ft 381 kts 159°
2026-05-06 21:11 52.76621 -1.94002 18910 ft 384 kts 159°
2026-05-06 21:12 52.74137 -1.92310 19490 ft 388 kts 159°
2026-05-06 21:12 52.71635 -1.90606 20032 ft 391 kts 159°
2026-05-06 21:12 52.69126 -1.88903 20560 ft 395 kts 159°
2026-05-06 21:12 52.66578 -1.87176 21105 ft 398 kts 159°
2026-05-06 21:13 52.64004 -1.85433 21645 ft 401 kts 159°
2026-05-06 21:13 52.61415 -1.83683 22165 ft 404 kts 159°
2026-05-06 21:13 52.58805 -1.81919 22668 ft 407 kts 159°
2026-05-06 21:13 52.56170 -1.80141 23111 ft 410 kts 159°
2026-05-06 21:14 52.53517 -1.78353 23587 ft 413 kts 159°
2026-05-06 21:14 52.50850 -1.76557 24063 ft 416 kts 159°
2026-05-06 21:14 52.48166 -1.74752 24505 ft 419 kts 159°
2026-05-06 21:14 52.45469 -1.72940 24958 ft 420 kts 159°
2026-05-06 21:15 52.42764 -1.71124 25518 ft 419 kts 159°
2026-05-06 21:15 52.40073 -1.69323 26129 ft 416 kts 159°
2026-05-06 21:15 52.37427 -1.67438 26700 ft 415 kts 154°
2026-05-06 21:15 52.34982 -1.64906 27190 ft 417 kts 144°
2026-05-06 21:16 52.32823 -1.61738 27679 ft 418 kts 135°
2026-05-06 21:16 52.30825 -1.58294 28217 ft 416 kts 135°
2026-05-06 21:16 52.28849 -1.54843 28688 ft 416 kts 134°
2026-05-06 21:16 52.26870 -1.51395 29038 ft 417 kts 135°
2026-05-06 21:17 52.24897 -1.47986 29028 ft 419 kts 135°
2026-05-06 21:17 52.20901 -1.41154 29041 ft 414 kts 135°
2026-05-06 21:18 52.16908 -1.34378 29046 ft 415 kts 135°
2026-05-06 21:18 52.12893 -1.27592 29054 ft 416 kts 135°
2026-05-06 21:19 52.08868 -1.20802 29047 ft 417 kts 135°
2026-05-06 21:19 52.04833 -1.14011 29047 ft 417 kts 135°
2026-05-06 21:20 52.00776 -1.07280 29048 ft 417 kts 136°
2026-05-06 21:20 51.96700 -1.00599 29049 ft 416 kts 136°
2026-05-06 21:21 51.92689 -0.93868 29039 ft 414 kts 135°
2026-05-06 21:21 51.88702 -0.87194 29036 ft 414 kts 135°
2026-05-06 21:22 51.84692 -0.80518 29035 ft 413 kts 135°
2026-05-06 21:22 51.80682 -0.73863 29038 ft 412 kts 136°
2026-05-06 21:23 51.76672 -0.67242 29041 ft 412 kts 136°
2026-05-06 21:23 51.72648 -0.60633 29036 ft 413 kts 136°
2026-05-06 21:24 51.68618 -0.54025 29035 ft 413 kts 136°
2026-05-06 21:24 51.64613 -0.47473 29032 ft 413 kts 136°
2026-05-06 21:25 51.60573 -0.40880 29029 ft 414 kts 136°
2026-05-06 21:25 51.56524 -0.34289 29026 ft 414 kts 136°
2026-05-06 21:26 51.52464 -0.27701 29027 ft 414 kts 136°
2026-05-06 21:26 51.48410 -0.21135 29041 ft 414 kts 136°
2026-05-06 21:27 51.44353 -0.14583 29034 ft 414 kts 136°
2026-05-06 21:27 51.40285 -0.08031 29038 ft 414 kts 136°
2026-05-06 21:28 51.36222 -0.01505 29031 ft 413 kts 136°
2026-05-06 21:28 51.34391 0.02045 29014 ft 415 kts 122°
2026-05-06 21:28 51.33184 0.06231 29026 ft 416 kts 108°
2026-05-06 21:28 51.32634 0.10705 29020 ft 416 kts 95°
2026-05-06 21:29 51.32434 0.15318 29030 ft 416 kts 94°
2026-05-06 21:29 51.32078 0.24557 29027 ft 416 kts 94°
2026-05-06 21:30 51.31673 0.33797 29025 ft 416 kts 94°
2026-05-06 21:30 51.31229 0.43013 29020 ft 416 kts 95°
2026-05-06 21:31 51.30776 0.52211 29017 ft 415 kts 95°
2026-05-06 21:31 51.30322 0.61365 29014 ft 415 kts 94°
2026-05-06 21:32 51.29981 0.70566 29026 ft 415 kts 93°
2026-05-06 21:32 51.29500 0.84356 29019 ft 414 kts 94°
2026-05-06 21:33 51.29155 0.93538 29018 ft 413 kts 94°
2026-05-06 21:33 51.28802 1.02706 29019 ft 413 kts 94°
2026-05-06 21:34 51.28438 1.11867 29021 ft 413 kts 94°
2026-05-06 21:34 51.28065 1.21019 29016 ft 413 kts 94°
2026-05-06 21:35 51.27687 1.30166 29018 ft 413 kts 94°
2026-05-06 21:35 51.27303 1.39313 29020 ft 413 kts 94°
2026-05-06 21:36 51.26911 1.48466 29019 ft 413 kts 94°
2026-05-06 21:36 51.26516 1.57558 29020 ft 413 kts 94°
2026-05-06 21:37 51.26116 1.66708 29019 ft 413 kts 94°
2026-05-06 21:37 51.25709 1.75870 29019 ft 413 kts 94°
2026-05-06 21:38 51.25294 1.85010 29017 ft 413 kts 94°
2026-05-06 21:38 51.24874 1.94150 29016 ft 413 kts 94°
2026-05-06 21:39 51.24448 2.03283 29020 ft 412 kts 94°
2026-05-06 21:39 51.24042 2.12210 28992 ft 391 kts 94°
2026-05-06 21:40 51.23845 2.16520 28698 ft 387 kts 94°
2026-05-06 21:40 51.23649 2.20773 28431 ft 383 kts 94°
2026-05-06 21:40 51.23452 2.24993 28071 ft 381 kts 95°
2026-05-06 21:40 51.23255 2.29192 27723 ft 378 kts 95°
2026-05-06 21:41 51.23057 2.33362 27383 ft 376 kts 95°
2026-05-06 21:41 51.22779 2.37498 27016 ft 374 kts 103°
2026-05-06 21:41 51.21948 2.41394 26667 ft 370 kts 117°
2026-05-06 21:41 51.20607 2.44861 26301 ft 366 kts 130°
2026-05-06 21:42 51.18955 2.47927 25963 ft 363 kts 133°
2026-05-06 21:42 51.17305 2.50889 25609 ft 361 kts 133°
2026-05-06 21:42 51.15647 2.53885 25258 ft 360 kts 133°
2026-05-06 21:42 51.14011 2.56880 24918 ft 358 kts 132°
2026-05-06 21:43 51.12385 2.59877 24568 ft 356 kts 132°
2026-05-06 21:43 51.10813 2.62915 24221 ft 356 kts 126°
2026-05-06 21:43 51.09615 2.66353 23888 ft 355 kts 114°
2026-05-06 21:43 51.08844 2.70079 23546 ft 355 kts 103°
2026-05-06 21:44 51.08357 2.73916 23220 ft 353 kts 101°
2026-05-06 21:44 51.07912 2.77748 22877 ft 351 kts 101°
2026-05-06 21:44 51.07477 2.81558 22540 ft 350 kts 101°
2026-05-06 21:44 51.07038 2.85352 22203 ft 349 kts 101°
2026-05-06 21:45 51.06595 2.89132 21877 ft 347 kts 101°
2026-05-06 21:45 51.06147 2.92891 21546 ft 345 kts 101°
2026-05-06 21:45 51.05697 2.96623 21217 ft 343 kts 101°
2026-05-06 21:45 51.05246 3.00344 20889 ft 342 kts 101°
2026-05-06 21:46 51.04794 3.04045 20569 ft 340 kts 101°
2026-05-06 21:46 51.04341 3.07733 20239 ft 339 kts 102°
2026-05-06 21:46 51.03892 3.11360 19918 ft 337 kts 102°
2026-05-06 21:46 51.03440 3.15018 19587 ft 336 kts 101°
2026-05-06 21:47 51.02991 3.18650 19272 ft 335 kts 101°
2026-05-06 21:47 51.02542 3.22268 18948 ft 333 kts 102°
2026-05-06 21:47 51.02094 3.25872 18630 ft 332 kts 101°
2026-05-06 21:47 51.01647 3.29459 18309 ft 332 kts 101°
2026-05-06 21:48 51.01191 3.33037 17985 ft 330 kts 103°
2026-05-06 21:48 51.00747 3.36589 17674 ft 326 kts 102°
2026-05-06 21:48 51.00313 3.40082 17354 ft 321 kts 101°
2026-05-06 21:48 50.99878 3.43541 17053 ft 318 kts 101°
2026-05-06 21:49 50.99443 3.46983 16748 ft 317 kts 101°
2026-05-06 21:49 50.99008 3.50407 16440 ft 315 kts 101°
2026-05-06 21:49 50.98575 3.53812 16135 ft 314 kts 101°
2026-05-06 21:49 50.98141 3.57203 15832 ft 313 kts 101°
2026-05-06 21:50 50.97709 3.60579 15526 ft 312 kts 101°
2026-05-06 21:50 50.97279 3.63941 15222 ft 310 kts 101°
2026-05-06 21:50 50.96848 3.67293 14920 ft 309 kts 101°
2026-05-06 21:50 50.96418 3.70632 14616 ft 308 kts 101°
2026-05-06 21:51 50.95996 3.73911 14324 ft 306 kts 101°
2026-05-06 21:51 50.95568 3.77216 14026 ft 305 kts 101°
2026-05-06 21:51 50.95142 3.80510 13732 ft 304 kts 101°
2026-05-06 21:51 50.94718 3.83781 13428 ft 303 kts 101°
2026-05-06 21:52 50.94294 3.87042 13131 ft 302 kts 101°
2026-05-06 21:52 50.93869 3.90295 12832 ft 300 kts 101°
2026-05-06 21:52 50.93446 3.93530 12542 ft 299 kts 101°
2026-05-06 21:52 50.93019 3.96751 12236 ft 298 kts 103°
2026-05-06 21:53 50.92179 3.99733 11919 ft 298 kts 127°
2026-05-06 21:53 50.90697 4.02005 11663 ft 296 kts 140°
2026-05-06 21:53 50.89096 4.04046 11375 ft 295 kts 141°
2026-05-06 21:53 50.87506 4.06039 11076 ft 294 kts 141°
2026-05-06 21:54 50.85905 4.08052 10780 ft 293 kts 141°
2026-05-06 21:54 50.84313 4.10065 10487 ft 293 kts 140°
2026-05-06 21:54 50.82727 4.12079 10196 ft 292 kts 140°
2026-05-06 21:54 50.81159 4.14077 10037 ft 286 kts 140°
2026-05-06 21:55 50.79623 4.16040 9806 ft 283 kts 140°
2026-05-06 21:55 50.78090 4.17998 9524 ft 282 kts 140°
2026-05-06 21:55 50.76568 4.19942 9246 ft 281 kts 140°
2026-05-06 21:55 50.75049 4.21885 8977 ft 280 kts 140°
2026-05-06 21:56 50.73539 4.23808 8702 ft 279 kts 140°
2026-05-06 21:56 50.72540 4.25081 8520 ft 278 kts 140°
2026-05-06 21:56 50.71036 4.26997 8254 ft 277 kts 140°
2026-05-06 21:56 50.69169 4.29723 7864 ft 275 kts 120°
2026-05-06 21:57 50.68565 4.31511 7725 ft 273 kts 114°
2026-05-06 21:57 50.67742 4.34221 7465 ft 275 kts 114°
2026-05-06 21:57 50.66915 4.36940 7199 ft 275 kts 114°
2026-05-06 21:57 50.66086 4.39644 6937 ft 274 kts 114°
2026-05-06 21:58 50.65256 4.42337 6671 ft 272 kts 114°
2026-05-06 21:58 50.64429 4.45007 6411 ft 271 kts 114°
2026-05-06 21:58 50.63601 4.47670 6154 ft 270 kts 114°
2026-05-06 21:58 50.62778 4.50311 5897 ft 268 kts 114°
2026-05-06 21:59 50.61967 4.52908 5640 ft 267 kts 114°
2026-05-06 21:59 50.61148 4.55532 5384 ft 266 kts 114°
2026-05-06 21:59 50.60333 4.58136 5130 ft 264 kts 114°
2026-05-06 21:59 50.59522 4.60721 4876 ft 262 kts 114°
2026-05-06 22:00 50.58715 4.63289 4634 ft 260 kts 114°
2026-05-06 22:00 50.57927 4.65786 4510 ft 246 kts 114°
2026-05-06 22:00 50.57193 4.68107 4360 ft 228 kts 114°
2026-05-06 22:00 50.56389 4.70165 4227 ft 218 kts 136°
2026-05-06 22:01 50.55048 4.71122 3850 ft 221 kts 179°
2026-05-06 22:01 50.53621 4.70472 3602 ft 213 kts 217°
2026-05-06 22:01 50.52717 4.68747 3389 ft 201 kts 244°
2026-05-06 22:01 50.52132 4.66798 3181 ft 194 kts 248°
2026-05-06 22:02 50.51627 4.64871 2994 ft 187 kts 251°
2026-05-06 22:02 50.51132 4.62998 2762 ft 185 kts 249°
2026-05-06 22:02 50.50607 4.61168 2519 ft 183 kts 248°
2026-05-06 22:02 50.50083 4.59377 2282 ft 177 kts 248°
2026-05-06 22:03 50.49589 4.57680 2096 ft 163 kts 248°
2026-05-06 22:03 50.49115 4.56056 1846 ft 162 kts 247°
2026-05-06 22:03 50.48652 4.54463 1627 ft 159 kts 247°
2026-05-06 22:03 50.48198 4.52914 1421 ft 158 kts 247°
2026-05-06 22:04 50.47744 4.51345 1200 ft 158 kts 247°
2026-05-06 22:04 50.47289 4.49785 996 ft 157 kts 247°
2026-05-06 22:04 50.46840 4.48239 797 ft 154 kts 246°
2026-05-06 22:04 50.46399 4.46717 604 ft 151 kts 247°
2026-05-06 22:05 50.46033 4.45454 592 ft 79 kts 245°
2026-05-06 22:05 50.45912 4.45032 592 ft 31 kts 246°
2026-05-06 22:05 50.45896 4.44822 596 ft 14 kts 319°
2026-05-06 22:05 50.45990 4.44774 595 ft 17 kts 12°
2026-05-06 22:06 50.46060 4.44926 596 ft 19 kts 65°
2026-05-06 22:06 50.46118 4.45119 596 ft 19 kts 65°
2026-05-06 22:06 50.46172 4.45310 598 ft 20 kts 66°
2026-05-06 22:06 50.46235 4.45525 598 ft 22 kts 65°
2026-05-06 22:07 50.46298 4.45741 596 ft 21 kts 65°
2026-05-06 22:07 50.46360 4.45953 596 ft 22 kts 65°
2026-05-06 22:07 50.46430 4.46193 590 ft 25 kts 65°
2026-05-06 22:07 50.46501 4.46436 588 ft 24 kts 65°
2026-05-06 22:08 50.46568 4.46666 590 ft 23 kts 65°
2026-05-06 22:08 50.46617 4.46796 591 ft 12 kts 26°
2026-05-06 22:08 50.46697 4.46776 588 ft 11 kts
2026-05-06 22:08 50.46741 4.46864 586 ft 9 kts 65°
2026-05-06 22:09 50.46768 4.46900 584 ft 4 kts 351°
2026-05-06 22:09 50.46789 4.46887 584 ft 2 kts 336°
2026-05-06 22:09 50.46803 4.46878 584 ft 1 kts 335°
2026-05-06 22:09 50.46806 4.46875 584 ft 0 kts 335°